Regional Weather Roundup
Issued by NWS San Angelo, TX

Home | Current Version | Previous Version | Text Only | Print | Product List | Glossary Off
Versions: 1 2 3 4 5 6 7 8 9 10 11 12 13 14 15 16 17 18 19 20 21 22 23 24 25 26 27 28 29 30 31 32 33 34 35 36 37 38 39 40 41 42 43 44 45 46 47 48 49 50

000
ASUS44 KSJT 131102
RWRSJT
WEST CENTRAL TEXAS REGIONAL WEATHER ROUNDUP
NATIONAL WEATHER SERVICE SAN ANGELO TX
500 AM CST SAT FEB 13 2016

NOTE: "FAIR" INDICATES FEW OR NO CLOUDS BELOW 12,000 FEET WITH NO
SIGNIFICANT WEATHER AND/OR OBSTRUCTIONS TO VISIBILITY.

TXZ049-054-064>066-071>073-076>078-098-099-113-114-127-128-139-140-
154-155-168>170-131200
...LOCATIONS ACROSS WEST CENTRAL TEXAS...

CITY           SKY/WX    TMP DP  RH WIND       PRES   REMARKS
SAN ANGELO     CLEAR     37  30  75 CALM      30.31S
ABILENE        CLEAR     42  34  73 CALM      30.33F
DYESS AFB      CLEAR     37  32  84 CALM      30.32F
JUNCTION       CLEAR     38  31  76 CALM      30.31S
SWEETWATER     NOT AVBL
BROWNWOOD      NOT AVBL
COLEMAN        NOT AVBL
SONORA         NOT AVBL
OZONA          NOT AVBL
BRADY          NOT AVBL
$$

TEXAS PANHANDLE/OKLAHOMA PANHANDLE

CITY           SKY/WX    TMP DP  RH WIND       PRES   REMARKS
AMARILLO       CLEAR     31  28  89 S18       30.30F WCI  19
BORGER         CLOUDY    31  27  85 E3        30.34F
CANADIAN       CLOUDY    25  24  95 CALM      30.38S FOG
DALHART        CLOUDY    32  28  85 S8        30.29F WCI  25
DUMAS          CLOUDY    25  23  92 S6        30.31S FOG     WCI  18
GUYMON         NOT AVBL
HEREFORD       NOT AVBL
PAMPA          NOT AVBL
PERRYTON       NOT AVBL
$$

SOUTHERN PANHANDLE/SOUTH PLAINS/ROLLING PLAINS

CITY           SKY/WX    TMP DP  RH WIND       PRES   REMARKS
LUBBOCK        CLEAR     33  29  85 E8        30.31F WCI  26
SNYDER           N/A     38  32  80 NE6       30.33F WCI  33
CHILDRESS      CLOUDY    32  27  81 N5        30.38F WCI  27
SEMINOLE       NOT AVBL
$$

PERMIAN BASIN

CITY           SKY/WX    TMP DP  RH WIND       PRES   REMARKS
MIDLAND        CLOUDY    44  32  62 E6        30.29S
ODESSA         CLOUDY    45  32  60 E7        30.29S
WINK           CLOUDY    36  28  73 VRB3      30.25S
$$

FAR WEST/SOUTHWEST MOUNTAINS/TRANS PECOS

CITY           SKY/WX    TMP DP  RH WIND       PRES   REMARKS
ALPINE         NOT AVBL
DRYDEN           N/A     50  36  58 N6        30.24F
EL PASO        PTCLDY    41  16  36 N5        30.24S WCI  38
FORT STOCKTON  CLOUDY    45  28  51 SE5       30.25S
GUADALUPE PASS CLOUDY    53  17  24 NE9       30.31S
MARFA          CLOUDY    31  18  58 NW5       30.32R WCI  26
PECOS          NOT AVBL
$$

DALLAS/FORT WORTH METROPLEX

CITY           SKY/WX    TMP DP  RH WIND       PRES   REMARKS
DFW AIRPORT    PTCLDY    41  29  62 N7        30.37R WCI  36
FTW MEACHAM    CLEAR     42  30  62 NE7       30.38R WCI  38
DAL-EXECUTIVE  CLEAR     44  30  57 NE6       30.37R
GRAND PRAIRIE  CLEAR     43  31  63 N6        30.39R WCI  39
ADDISON        NOT AVBL
MESQUITE       SUNNY     42  31  65 N8        30.38S WCI  37
LANCASTER      SUNNY     43  29  58 N3        30.38S
$$

NORTH CENTRAL TEXAS

CITY           SKY/WX    TMP DP  RH WIND       PRES   REMARKS
SHRMAN/DENISON SUNNY     37  29  71 NE7       30.41F WCI  32
GAINESVILLE    CLEAR     36  28  72 NE3       30.41F
BRIDGEPORT     SUNNY     38  31  74 E3        30.41R
DENTON         CLEAR     39  29  67 NE7       30.39R WCI  34
WAXAHACHIE     SUNNY     43  33  68 N3        30.38R
GRANBURY       SUNNY     44  33  65 CALM      30.39S
$$

WESTERN NORTH TEXAS

CITY           SKY/WX    TMP DP  RH WIND       PRES   REMARKS
WICHITA FALLS  CLEAR     34  27  75 E8        30.38S WCI  27
VERNON         CLOUDY    35  26  69 NE5       30.40S WCI  31
BRECKENRIDGE   NOT AVBL
COMANCHE       CLEAR     45  36  71 E5        30.35S
$$

CENTRAL AND SOUTH CENTRAL TEXAS

CITY           SKY/WX    TMP DP  RH WIND       PRES   REMARKS
AUSTIN/BERGSTM CLEAR     47  38  71 N6        30.30S
WACO           CLEAR     44  34  67 N9        30.35R WCI  39
HILLSBORO      SUNNY     44  32  62 NE9       30.35S WCI  39
TEMPLE         PTCLDY    42  35  76 N7        30.34R WCI  38
KILLEEN-GRAY   PTCLDY    44  36  72 N12       30.33R WCI  39
FORT HOOD      PTCLDY    48  36  62 NE12      30.32R
GEORGETOWN     CLEAR     48  36  61 N7        30.32R
LAGO VISTA     NOT AVBL
SAN MARCOS     CLEAR     50  37  62 N7        30.31R
NEW BRAUNFELS  CLEAR     52  39  61 N6        30.28S
RANDOLPH AFB   CLEAR     47  41  78 N6        30.29R
SAN ANTONIO    CLEAR     50  41  71 NW5       30.29R
STINSON        CLEAR     52  41  66 CALM      30.28R
PLEASANTON     NOT AVBL
LA GRANGE      NOT AVBL
GIDDINGS       NOT AVBL
$$

EAST TEXAS

CITY           SKY/WX    TMP DP  RH WIND       PRES   REMARKS
PARIS          CLEAR     37  25  60 N5        30.40S WCI  34
CLARKSVILLE    NOT AVBL
TYLER          CLEAR     44  33  65 NE5       30.36R
LONGVIEW       CLEAR     44  36  73 E7        30.37R
PALESTINE      NOT AVBL
NACOGDOCHES    CLEAR     46  34  61 E6        30.35R
$$

TEXAS HILL COUNTRY AND EDWARDS PLATEAU

CITY           SKY/WX    TMP DP  RH WIND       PRES   REMARKS
LLANO          NOT AVBL
HORSESHOE BAY  FAIR      42  37  85 CALM      30.31S
KERRVILLE      CLEAR     41  37  87 CALM      30.30S
FREDERICKSBRG  NOT AVBL
ROCKSPRINGS    NOT AVBL
HONDO          CLEAR     47  38  71 NE3       30.30S
UVALDE         SUNNY     48  41  75 NE6       30.28S
DEL RIO        CLEAR     50  41  71 CALM      30.24S
$$

SOUTHEAST TEXAS

CITY           SKY/WX    TMP DP  RH WIND       PRES   REMARKS
COLLEGE STN    PTCLDY    54  41  61 NE6       30.31R
CALDWELL       NOT AVBL
CROCKETT       NOT AVBL
BRENHAM        CLOUDY    57  51  80 CALM      30.32R
HUNTSVILLE     MOCLDY    51  42  71 CALM      30.32R
CONROE         CLOUDY    57  41  55 E5        30.31R
HOUSTON BUSH   MOCLDY    55  49  80 CALM      30.30R
HOUSTON HOBBY  MOCLDY    61  56  83 CALM      30.29R
PERLAND        CLOUDY    58  54  86 CALM      30.31R
WHARTON        NOT AVBL
$$

THE UPPER TEXAS COAST

CITY           SKY/WX    TMP DP  RH WIND       PRES   REMARKS
ORANGE         NOT AVBL
PORT ARTHUR    PTCLDY    55  48  77 NE6       30.31R
GALVESTON      PTCLDY    58  58 100 N5        30.30R
ANGLETON       FOG       51  51 100 N6        30.30R VSB 1
BAY CITY       FOG       52  52 100 N3        30.30R VSB 3/4
$$

TEXAS COASTAL BEND, RIO GRANDE PLAINS DEEP SOUTH TEXAS

CITY           SKY/WX    TMP DP  RH WIND       PRES   REMARKS
VICTORIA       FOG       51  51 100 N5        30.29R VSB 1/2
BEEVILLE       FOG       44  44 100 CALM      30.28R VSB 1/4
ROCKPORT       FOG       53  51  93 CALM      30.28R VSB<1/4
PORT ARANSAS   NOT AVBL
PORT LAVACA    FOG       51  51 100 CALM      30.28S VSB 1/2
CORPUS CHRISTI PTCLDY    50  49  96 SE7       30.27R
KINGSVILLE NAS FOG       48  48 100 E3        30.26R VSB 1/4
COTULLA        CLEAR     53  51  93 NE8       30.27R
LAREDO         CLOUDY    58  57  97 SE9       30.24S FOG
BROWNSVILLE    CLEAR     58  57  97 SE5       30.26R
PORT ISABEL    PTCLDY    58  57  97 S6        30.25R
HEBBRONVILLE   NOT AVBL
MCALLEN        FOG       59  57  93 SE3       30.26R VSB 1/4
WESLACO        NOT AVBL
FALFURRIAS     CLOUDY    54  53  95 CALM      30.26R VSB 1/4
EDINBURG       FOG       52  50  93 CALM      30.25S VSB<1/4
$$



USA.gov is the U.S. government's official web portal to all federal, state and local government web resources and services.